{"data":{"norad_id":64960,"intl_designator":"2025-159E","name":"HULIANWANG DIGUI-39","alt_names":[],"object_type":"PAYLOAD","status":"ACTIVE","operator":null,"country":"PRC","launch_date":"2025-07-27","launch_site_code":"TAISC","launch_vehicle":null,"mission":null,"orbit_class":"UNKNOWN","rcs_meters":null,"size_class":null,"mass_kg":null,"dimensions":null,"purposes":[],"wikipedia_slug":null,"has_3d_model":false,"image_url":null,"decayed_at":null,"tle_current":{"epoch":"2026-09-21T22:14:30.799104Z","epoch_age_seconds":44989,"freshness":"FRESH","line1":"1 64960U 25159E   26264.92674536 -.00000051  00000+0 -15407-3 0  9996","line2":"2 64960  86.4896 249.6907 0002057  84.6721 275.4648 13.24401252 55939","mean_motion":13.24401252,"eccentricity":0.0002057,"inclination_deg":86.4896,"raan_deg":249.6907,"arg_perigee_deg":84.6721,"mean_anomaly_deg":275.4648,"bstar":-0.00015407,"rev_number":5593,"period_min":108.7283780369,"perigee_km":1166.4031834469,"apogee_km":1169.5076458663,"semimajor_km":7546.0924146566,"source":"CELESTRAK","updated_at":"2026-09-22T09:00:30.061923Z"}}}